Home   Weather   Mountain View   Past weeks

Flag for USA Past Weather in Mountain View, California, USA — Yesterday and Last 2 Weeks

Now
66 °F

Overcast.


Feels Like: 66 °F
Forecast: 57 / 67 °F
Wind: 17 mph from North

Location: Moffett Field

Current Time: Apr 26, 2017 at 4:52:13 pm

Latest Report: Apr 26, 2017 at 3:56 pm


Visibility: 10 mi

Pressure: 30.05 "Hg

Humidity: 75%

Dew Point: 58 °F

Location of Mountain ViewLocation

Past Weather in Mountain View — Graph

°F

Mountain View Temperature Yesterday

Maximum temperature yesterday: 66 °F (at 3:56 pm)
Minimum temperature yesterday: 52 °F (at 2:56 am)
Average temperature yesterday: 59 °F

High & Low Weather Summary for the Past Weeks

 TemperatureHumidityPressure
High76 °F (Apr 21, 3:56 pm)100% (Apr 13, 2:04 am)30.33 "Hg (Apr 13, 2:04 am)
Low44 °F (Apr 15, 6:56 am)22% (Apr 22, 10:56 am)29.92 "Hg (Apr 12, 7:56 pm)
Average58 °F70%30.09 "Hg
* Reported Apr 11 2:56 pm — Apr 26 2:56 pm, Mountain View, Weather by CustomWeather, © 2017

Note: Actual official high and low records may vary slightly from our data, if they occured in-between our weather recording intervals... More about our weather records

Advertising

Mountain View Weather History for the Previous 24 Hours

Scroll right to see more
 ConditionsComfort  
Time TempWeatherWind HumidityBarometerVisibility
2:56 pm
Wed, Apr 26
66 °FOvercast.10 mph73%30.07 "Hg10 mi
1:56 pm65 °FOvercast.3 mph73%30.07 "Hg10 mi
12:56 pm64 °FOvercast.8 mph78%30.08 "Hg10 mi
11:56 am64 °FOvercast.8 mph75%30.09 "Hg10 mi
10:56 am63 °FOvercast.5 mph75%30.08 "Hg10 mi
9:56 am63 °FOvercast.7 mph73%30.08 "Hg10 mi
8:56 am61 °FMostly cloudy.5 mph75%30.07 "Hg10 mi
7:56 am59 °FOvercast.5 mph78%30.08 "Hg10 mi
6:56 am57 °FOvercast.No wind83%30.08 "Hg10 mi
5:56 am57 °FMostly cloudy.No wind83%30.08 "Hg10 mi
4:56 am57 °FOvercast.No wind81%30.07 "Hg10 mi
4:40 am56 °FMostly cloudy.3 mph84%30.06 "Hg10 mi
3:56 am57 °FPassing clouds.3 mph81%30.07 "Hg10 mi
3:05 am57 °FPassing clouds.No wind78%30.08 "Hg10 mi
1:56 am58 °FOvercast.3 mph78%30.11 "Hg10 mi
1:35 am58 °FMostly cloudy.3 mph78%30.11 "Hg10 mi
12:56 am57 °FOvercast.No wind81%30.12 "Hg10 mi
12:24 am57 °FMostly cloudy.No wind81%30.12 "Hg10 mi
11:56 pm
Tue, Apr 25
57 °FClear.No wind78%30.12 "Hg10 mi
10:56 pm58 °FClear.5 mph75%30.13 "Hg10 mi
9:56 pm57 °FClear.5 mph78%30.13 "Hg10 mi
8:56 pm58 °FPassing clouds.5 mph75%30.13 "Hg10 mi
7:56 pm61 °FOvercast.6 mph67%30.11 "Hg10 mi
6:56 pm62 °FScattered clouds.10 mph65%30.10 "Hg10 mi
5:56 pm63 °FSunny.12 mph63%30.11 "Hg10 mi
4:56 pm65 °FPartly sunny.12 mph59%30.10 "Hg10 mi
Weather by CustomWeather, © 2017

See weather overviewHow to use our weather pages